RH
71 89 102 102 100 101 101 102 103 102 101 104 104 102 104 102 104 111 108 99 84 65 55 51 56 66 68 68 70 65 59 59 66 78 83 93 102 102 104 103 103 100 88 72 65 64 62 61 58 55 54 52 52 55 58 61 63 65 66 68 74 77 78 78 76 75 73 73 73 74 74 73 72 72 73 75 79 82 83 83 84 86 87 88 90 92 93 93 91 86 82 85 87 84 84 79 73
87 87 97 103 101 100 101 101 102 101 100 102 102 101 103 103 103 107 109 104 88 69 56 51 55 69 80 77 74 73 71 70 72 81 88 97 106 106 104 103 101 100 97 90 83 75 67 63 59 56 52 48 46 45 45 45 45 46 52 64 75 78 79 81 81 79 75 72 71 72 74 74 73 73 75 78 79 83 86 87 88 90 92 94 96 99 102 103 102 98 91 89 90 89 87 82 77
101 99 101 104 103 101 100 101 101 101 101 101 101 102 103 104 104 103 104 104 99 82 63 58 61 67 76 80 82 81 80 85 86 88 92 98 106 108 103 100 101 101 99 99 98 93 85 78 73 69 63 59 55 51 49 46 45 44 52 68 82 88 87 85 85 83 79 75 74 75 75 76 76 77 82 86 87 89 92 93 93 94 95 97 101 104 106 106 106 107 101 93 92 93 91 86 81
102 102 104 104 102 102 102 101 102 102 102 101 102 103 103 102 103 105 104 104 102 91 76 71 75 76 75 80 87 90 91 95 97 99 100 101 104 106 104 99 98 101 102 100 95 90 86 81 77 72 68 64 59 57 54 52 50 48 59 78 90 97 95 91 90 87 83 80 79 79 82 86 89 89 91 94 96 97 98 99 99 100 101 102 105 104 103 102 103 109 108 97 93 95 93 88 84
100 100 102 102 102 103 101 101 102 102 102 103 103 103 104 100 99 103 106 105 103 98 90 85 90 97 96 96 98 98 98 98 98 100 103 106 105 105 106 105 100 100 103 104 98 91 85 79 73 68 65 64 63 61 61 65 67 68 80 93 97 99 103 102 100 97 92 88 87 91 97 101 103 103 101 100 100 102 104 104 103 104 104 105 105 103 103 103 106 111 110 101 95 95 91 87 87
91 97 100 101 101 103 102 103 104 102 101 104 104 101 100 98 97 102 106 104 103 103 100 98 99 104 107 108 108 105 100 96 94 94 97 100 102 103 106 109 106 101 99 98 96 92 86 79 73 69 70 76 83 85 86 92 94 94 98 101 102 104 108 107 104 103 100 98 100 103 105 105 105 104 104 105 104 104 105 106 108 108 108 108 105 103 104 104 108 109 105 99 94 92 89 88 90
94 95 96 98 99 98 97 98 98 97 93 93 93 92 96 96 95 102 107 103 103 103 102 101 100 100 102 105 107 106 102 96 91 88 90 93 97 101 105 109 106 101 96 92 93 95 96 93 89 88 92 98 102 103 103 106 105 104 106 106 107 106 105 104 102 100 99 102 105 105 104 104 104 102 103 104 104 103 104 108 111 109 107 106 102 99 99 99 100 98 93 90 88 88 87 88 91
105 102 93 86 84 81 85 89 89 91 89 88 85 83 86 87 89 98 106 105 103 103 102 99 95 95 97 100 103 104 103 101 97 90 87 89 94 98 101 105 104 102 100 98 98 99 102 104 102 101 104 105 104 104 103 107 107 106 107 108 107 103 100 101 101 101 102 105 106 106 106 106 105 103 104 104 103 102 102 103 101 97 95 92 88 85 84 84 84 84 84 84 84 86 87 88 91
104 107 101 90 82 83 93 100 100 100 98 99 97 90 86 85 85 91 101 105 103 102 101 96 92 94 98 100 101 103 102 102 102 98 94 92 94 98 99 101 102 103 104 104 102 101 100 101 101 100 102 103 102 101 101 103 103 104 106 105 103 102 102 102 103 107 107 102 99 97 96 94 91 90 89 90 89 87 87 85 81 80 79 78 77 76 75 75 76 79 82 85 88 89 90 92 95
101 103 106 104 100 101 107 109 108 109 108 107 105 100 95 94 91 90 96 100 101 101 101 99 98 99 100 100 100 101 101 101 101 101 101 99 98 99 102 102 101 100 101 103 103 102 101 101 100 100 101 101 101 101 102 102 101 103 104 102 102 103 106 106 103 102 97 89 84 80 79 78 78 77 76 75 75 74 73 74 74 74 75 77 78 80 81 83 84 86 88 91 94 96 97 99 100
102 101 103 106 107 109 108 106 106 107 107 107 106 103 100 100 100 97 96 96 97 99 102 104 104 103 102 101 101 100 101 100 103 105 103 102 100 100 101 101 102 100 100 101 101 101 102 101 100 101 102 100 102 102 101 102 101 103 102 101 102 100 100 99 95 90 87 83 78 75 73 73 75 77 77 76 77 77 78 77 78 78 79 82 84 87 88 91 94 96 98 100 102 102 104 107 108
100 100 100 101 103 106 105 103 102 103 102 102 104 103 104 105 106 105 103 103 102 102 103 104 105 105 105 105 103 101 101 100 103 105 105 106 104 102 101 100 100 100 100 101 100 101 101 101 101 102 101 100 101 100 99 100 100 101 101 99 98 95 93 92 91 89 88 86 82 80 79 79 79 81 83 83 84 86 88 88 86 86 87 88 90 92 93 96 98 101 103 106 107 107 108 112 111
100 101 101 101 101 101 101 101 101 101 100 100 101 101 103 104 105 105 105 105 104 102 102 102 102 102 103 104 103 102 101 100 100 100 102 106 106 106 105 103 102 100 101 101 100 101 100 100 101 101 100 100 99 97 95 95 96 96 95 93 91 91 91 91 94 94 95 96 95 94 94 94 92 92 93 94 96 97 98 100 100 99 99 99 100 101 103 104 104 106 107 108 110 108 107 107 106
88 91 93 95 99 102 103 102 102 102 101 100 100 101 101 101 102 102 102 102 101 101 101 101 101 101 101 102 103 103 103 102 102 102 102 102 103 104 104 106 105 103 104 102 101 101 101 100 100 100 100 100 100 99 98 97 98 98 97 96 95 95 93 93 94 95 97 99 101 102 105 105 103 103 103 103 104 104 103 103 104 104 103 104 104 103 106 106 105 110 109 107 110 106 102 104 104
75 74 72 71 74 82 90 95 98 101 102 102 103 103 101 101 101 100 101 100 100 100 100 100 100 100 100 100 101 101 102 103 102 103 102 102 103 102 102 106 105 105 107 104 103 105 103 101 102 101 100 101 101 101 101 101 101 103 104 103 104 103 100 99 98 98 98 98 98 99 101 102 103 104 104 104 104 105 105 103 102 102 104 105 102 101 105 103 102 106 105 103 106 103 100 104 105
85 79 72 66 62 60 64 69 76 83 88 93 97 100 101 102 102 102 102 101 102 102 101 101 101 101 101 101 101 101 102 102 101 101 101 101 102 101 102 103 101 102 102 100 102 104 103 103 103 102 101 101 102 101 101 100 100 103 103 101 103 103 100 101 100 100 102 100 99 97 96 95 95 94 94 95 96 98 101 100 99 100 101 99 97 98 100 99 98 101 101 100 102 101 100 102 104
99 97 90 86 81 74 68 64 64 68 71 74 78 82 85 88 91 93 95 96 96 95 95 94 93 93 93 94 94 95 97 97 97 97 98 99 100 99 100 101 101 100 99 97 96 96 97 99 100 101 102 102 102 102 102 101 100 102 102 100 102 101 99 102 100 100 102 101 100 100 99 97 95 93 92 91 91 92 93 95 95 96 96 94 94 94 93 94 95 97 100 101 101 102 102 100 102
95 97 98 101 102 98 91 82 77 76 77 77 77 76 75 75 75 76 77 81 81 79 79 80 82 82 82 83 84 85 87 89 90 89 88 88 88 88 90 92 94 97 99 100 98 98 98 98 99 100 101 101 100 100 101 101 100 101 101 101 100 97 96 98 97 97 99 100 100 102 101 100 100 100 98 95 95 93 92 93 94 95 96 96 96 94 93 92 93 94 98 99 98 98 99 99 101
87 86 90 98 103 103 99 92 87 84 86 91 94 93 92 90 86 84 82 81 82 80 77 75 77 77 78 79 79 81 82 84 87 87 87 85 84 84 83 84 85 87 89 92 93 95 96 98 100 101 102 101 99 97 97 97 97 97 97 98 95 94 93 91 91 91 91 92 94 96 97 97 98 100 98 97 97 95 94 94 95 95 94 95 95 95 94 92 93 93 95 98 98 97 99 100 100
95 93 93 96 98 100 101 99 95 91 91 95 101 104 106 105 101 100 98 98 98 97 94 90 86 83 82 81 79 79 78 80 82 84 86 86 87 88 88 89 89 89 90 90 90 89 90 93 94 96 100 101 100 98 97 97 96 95 94 93 92 91 90 88 88 90 88 89 90 90 91 92 94 95 96 97 98 98 97 98 97 96 96 97 97 98 98 97 98 97 96 99 100 101 102 102 102
100 100 100 100 99 101 101 101 101 100 101 101 101 103 105 105 103 103 102 103 104 105 104 103 101 98 96 94 93 92 91 91 89 90 90 90 92 92 92 93 93 94 94 95 95 94 93 94 94 95 97 100 102 101 102 103 101 102 101 98 100 98 97 97 95 96 97 96 96 97 96 97 97 97 98 100 101 101 103 105 104 103 104 104 103 103 102 103 103 101 101 102 101 102 103 102 103
100 100 100 100 100 101 100 101 101 101 102 101 101 102 102 102 102 102 102 101 101 101 102 102 102 103 104 103 104 104 106 105 102 104 103 100 102 102 101 101 100 99 98 99 99 99 100 100 101 101 102 104 105 102 106 108 103 106 105 102 106 105 101 104 102 100 102 101 101 104 103 103 103 102 103 104 102 103 106 107 107 107 107 106 107 106 103 103 105 104 103 105 103 102 105 104 103
103 102 101 100 101 100 100 101 101 101 101 101 102 102 102 101 102 101 101 102 101 101 102 102 100 101 102 102 103 103 104 103 103 105 104 102 104 105 104 103 103 103 101 102 101 100 102 101 102 103 103 103 103 101 104 106 101 102 103 101 104 104 100 104 105 100 101 102 101 102 102 103 103 102 102 104 102 102 105 106 104 106 106 104 104 106 104 101 105 105 102 105 105 102 106 108 105
106 105 104 103 102 102 101 102 103 103 103 103 102 102 102 102 101 101 101 100 101 101 101 102 101 101 102 101 102 102 101 102 102 102 101 102 103 103 103 101 102 103 101 101 102 101 101 101 102 102 101 102 101 100 102 103 101 101 102 102 101 101 100 102 104 102 102 104 102 101 103 103 102 102 101 102 105 103 103 103 103 106 104 102 103 103 104 102 104 106 103 103 105 103 102 105 104
102 102 105 105 104 104 102 103 104 104 103 101 97 94 94 93 93 94 94 94 94 96 98 100 101 102 104 104 103 103 103 103 103 102 101 102 102 101 102 102 102 102 101 102 102 101 101 102 103 102 101 102 102 102 102 102 102 102 102 103 101 100 100 100 100 100 101 102 100 101 104 104 102 103 103 103 106 104 102 103 106 107 103 102 104 104 103 102 103 105 102 100 105 105 101 101 103
88 89 92 97 100 102 101 102 102 101 101 96 90 86 82 80 80 81 81 82 83 85 87 90 93 96 99 100 100 101 101 100 99 99 98 98 98 96 96 97 96 97 98 99 99 99 101 101 102 103 102 102 103 103 103 103 103 104 104 105 103 101 103 104 101 99 100 99 97 96 98 100 97 98 101 100 101 102 101 103 104 105 105 103 104 106 105 105 106 105 104 104 106 107 104 103 102
71 72 75 80 84 87 90 92 92 91 91 88 84 80 75 72 70 70 70 70 72 73 74 76 78 81 83 85 86 88 88 88 87 86 85 84 84 82 81 80 80 81 83 85 86 89 91 92 93 95 95 96 97 98 98 99 100 101 101 102 103 104 105 106 105 104 105 104 101 97 96 96 91 91 94 90 91 94 92 94 94 94 97 96 96 98 98 99 100 100 101 102 102 102 101 100 98
63 63 65 68 71 74 76 77 78 77 77 75 74 71 69 67 65 64 63 64 64 64 65 65 66 67 68 69 70 71 71 71 71 71 70 69 67 65 64 63 63 64 66 67 69 72 74 76 78 80 81 82 83 85 85 86 88 89 90 92 94 97 99 99 101 103 104 105 105 103 103 101 96 95 95 91 91 91 89 88 88 87 88 88 87 89 91 92 93 93 94 94 94 93 93 93 91
68 64 64 64 63 65 66 67 68 68 68 67 66 65 64 62 61 60 59 59 59 59 59 59 59 59 59 59 59 59 59 59 59 58 58 57 56 55 54 54 54 56 57 58 60 61 62 64 65 67 68 69 70 71 71 72 72 73 74 75 77 79 81 82 84 85 87 89 91 93 94 95 94 94 94 93 92 92 92 91 89 89 90 88 87 88 89 90 89 88 88 88 87 87 87 86 85
89 84 81 77 73 69 65 63 63 62 62 62 61 61 60 58 56 56 57 57 57 56 56 56 56 56 57 57 57 57 56 56 56 55 55 54 54 54 54 54 54 55 55 56 57 57 57 57 58 59 59 60 61 61 61 61 61 60 60 61 62 63 65 66 67 67 68 69 69 71 73 74 76 77 78 79 80 80 81 81 81 82 84 84 84 84 84 83 81 80 79 80 80 80 81 81 81
102 101 99 97 95 91 87 82 79 76 75 75 75 74 68 63 60 60 61 61 62 62 62 62 62 62 62 62 63 63 63 63 62 61 61 60 60 59 59 58 58 57 57 56 56 55 55 54 54 54 54 54 54 54 54 53 53 53 52 52 52 53 54 55 56 57 58 58 58 58 59 60 60 61 63 63 65 66 66 67 67 68 69 71 72 73 74 74 73 73 72 72 71 72 72 73 74
98 99 100 101 101 102 102 100 98 97 95 92 88 85 79 75 74 74 75 75 76 76 75 74 74 73 73 73 73 72 71 70 69 68 67 66 65 64 63 62 60 59 59 57 57 56 55 54 54 53 52 52 52 51 51 50 50 50 49 49 49 48 48 49 49 49 50 50 51 51 51 52 52 52 54 55 56 56 57 58 58 58 59 60 60 61 62 63 64 64 64 64 63 63 63 64 64
89 91 92 94 95 97 99 100 101 103 103 101 98 98 97 95 94 91 89 86 84 81 79 77 75 73 70 68 65 63 61 58 56 54 53 51 50 49 48 47 46 45 45 44 44 44 43 43 43 43 44 44 44 44 44 44 44 45 45 45 45 45 46 46 46 46 46 47 47 47 47 47 48 48 48 48 49 49 50 50 50 51 51 51 51 52 52 53 54 55 56 56 56 56 56 56 56
75 80 84 87 89 92 95 97 99 101 102 101 99 96 93 89 84 80 75 71 68 65 63 60 57 55 52 50 47 45 43 41 40 38 37 36 35 35 34 33 32 31 31 30 29 29 29 28 28 28 28 28 29 29 29 30 30 31 31 32 33 33 34 35 36 37 37 39 39 40 41 42 43 44 44 45 45 45 46 46 46 46 46 46 46 46 46 46 47 48 49 50 50 50 51 51 51
55 60 66 70 73 77 80 82 82 82 80 76 72 67 63 60 58 56 54 53 52 51 50 49 48 47 46 44 43 42 40 39 38 36 35 34 33 32 31 29 28 27 26 25 24 23 22 22 21 20 20 20 19 19 19 19 19 19 19 20 20 20 21 22 22 24 24 25 26 27 28 29 31 32 33 35 36 37 38 39 40 41 41 42 42 42 43 43 43 44 44 45 46 46 46 47 48
44 46 48 51 52 54 55 56 56 54 53 51 50 49 49 49 49 50 50 50 50 49 48 47 45 43 41 39 37 35 34 32 31 30 29 28 27 26 26 25 24 24 23 22 22 21 21 20 20 20 19 19 19 19 18 18 17 17 17 16 16 16 16 16 15 16 16 17 17 17 18 19 19 20 21 22 23 24 25 26 27 28 29 30 32 33 34 35 36 37 38 39 40 41 41 42 42
45 44 44 44 44 45 45 46 46 47 47 48 48 48 48 48 47 46 45 43 41 39 36 34 32 31 29 29 29 28 28 28 28 29 29 29 29 29 29 28 28 28 27 27 27 26 26 25 25 25 24 24 24 24 23 23 22 22 22 21 21 20 19 19 18 17 17 17 16 16 16 15 15 15 15 15 16 16 16 17 18 18 19 19 20 21 22 23 23 25 26 28 29 30 32 33 34
55 54 53 53 52 52 51 49 48 47 45 44 42 40 38 36 34 32 30 28 27 27 27 27 28 29 30 31 32 33 34 34 34 34 34 35 34 34 33 33 32 32 31 31 30 29 29 28 27 27 26 26 26 25 25 24 24 24 24 24 24 24 23 23 22 22 22 21 21 21 20 20 19 18 18 17 16 16 15 15 15 15 15 15 15 15 15 15 16 16 16 18 19 19 21 22 22
49 48 47 46 45 43 40 38 36 34 32 30 28 27 26 25 25 26 27 28 29 31 32 34 35 36 37 37 37 37 37 37 37 36 36 36 36 36 35 35 35 34 34 33 32 32 31 30 29 28 27 26 25 24 24 23 23 22 22 22 22 22 22 21 22 21 21 21 21 21 22 21 22 22 21 21 21 20 20 20 19 19 18 17 17 16 16 15 14 14 13 13 14 14 15 15 16
34 33 32 31 30 29 28 27 26 25 25 24 25 26 27 28 30 33 35 36 37 38 38 39 39 39 39 39 39 39 38 39 39 39 39 39 39 39 39 39 38 37 37 36 35 33 32 30 28 27 26 24 24 23 23 22 22 21 21 20 20 19 19 19 19 19 18 18 18 18 19 19 19 19 19 19 19 20 20 20 21 21 21 21 20 20 19 19 17 16 15 15 15 15 15 15 15
27 27 26 26 25 25 25 25 26 27 28 30 31 34 36 37 38 40 41 41 41 41 41 41 41 41 41 42 42 42 43 43 44 44 44 44 44 43 42 42 40 39 38 35 33 31 29 27 25 25 24 23 23 22 22 22 21 21 20 20 19 18 18 17 17 16 16 15 15 15 15 15 15 15 15 15 15 15 15 16 16 17 17 17 18 18 18 18 18 18 17 17 17 18 18 19 19
24 24 25 25 27 28 30 32 34 36 39 40 42 43 44 43 43 44 44 44 44 44 44 44 44 45 45 46 46 47 47 47 48 48 48 47 46 45 43 41 39 37 34 32 30 28 26 25 24 23 22 21 21 20 19 18 18 18 17 17 17 16 16 16 15 15 14 13 13 13 12 12 12 12 12 11 11 11 11 11 11 12 12 12 12 13 13 13 14 14 14 15 15 16 17 19 20
27 28 29 31 33 35 37 40 42 44 45 46 46 47 46 45 46 47 47 46 46 46 47 47 48 49 50 51 51 52 52 53 53 53 51 48 45 43 40 38 35 33 31 29 28 27 26 25 25 24 23 22 20 20 19 18 17 16 16 15 14 14 13 13 12 12 11 11 10 10 10 9 9 9 9 8 8 8 8 8 8 8 8 8 8 9 9 9 10 10 10 10 11 12 12 13 15
33 35 37 39 40 42 44 45 47 47 48 47 47 48 49 48 47 49 49 49 50 51 52 54 54 55 55 55 57 58 60 59 56 52 48 45 43 40 37 35 33 31 30 29 28 27 26 25 25 24 23 23 23 22 22 21 19 18 17 16 15 14 13 11 11 10 9 9 8 8 8 7 7 7 6 6 6 5 6 5 5 6 6 6 6 6 6 6 6 7 7 7 7 7 8 8 9
40 42 43 45 46 47 48 49 49 48 48 48 48 50 53 53 52 54 56 57 58 58 58 59 59 60 62 64 65 65 61 57 52 49 46 44 42 39 37 36 34 33 32 31 30 29 27 25 24 23 22 22 21 21 21 20 19 18 17 16 14 13 12 11 10 9 8 8 7 7 7 6 6 6 5 5 5 5 5 5 4 5 4 5 5 5 5 5 5 5 5 5 5 5 5 5 6
44 45 45 46 47 48 48 48 48 48 49 50 51 53 57 59 58 59 60 61 62 63 64 67 69 71 71 69 65 60 55 52 50 49 47 44 42 40 40 39 37 37 36 35 34 32 30 28 26 25 23 22 22 21 21 20 19 18 17 16 15 13 12 11 10 9 8 7 7 6 6 6 6 6 6 5 5 5 5 5 5 5 5 5 5 5 5 5 4 4 4 4 4 4 4 4 5
46 47 47 48 48 48 49 49 49 51 53 54 55 56 59 63 64 64 66 69 72 74 75 76 75 71 66 61 57 55 54 53 50 48 46 45 44 45 45 45 44 44 43 42 41 40 38 37 35 33 31 30 30 29 28 27 26 25 24 22 20 18 16 14 12 11 9 8 7 7 6 6 5 5 5 5 5 5 5 5 5 5 5 5 5 5 5 5 5 4 4 4 4 4 4 4 4
47 47 48 49 50 51 52 53 55 56 57 58 60 60 63 70 76 77 78 79 80 78 73 69 65 62 59 57 56 54 53 51 50 49 49 49 50 52 52 52 51 50 49 47 46 46 46 46 44 42 40 39 39 39 38 37 35 33 32 29 26 24 21 18 17 15 13 11 10 9 7 7 6 6 5 5 5 5 4 4 4 4 4 4 4 4 4 4 4 4 4 4 4 4 4 4 4
47 47 48 49 50 52 53 55 56 57 59 62 65 68 71 76 81 80 76 72 70 67 63 61 59 59 58 57 55 54 54 53 53 53 53 53 54 55 56 55 53 52 50 47 46 46 48 50 49 48 46 45 46 46 45 43 41 39 36 34 30 27 25 22 20 17 15 13 12 10 9 8 7 7 6 6 5 5 5 4 4 4 4 4 4 4 4 4 4 4 4 4 4 4 4 4 4
48 49 50 51 52 54 56 59 62 65 66 67 68 69 67 68 70 67 62 61 61 60 59 58 58 58 58 57 55 55 54 53 53 52 51 50 50 52 53 52 50 49 48 46 45 45 49 52 53 52 51 50 50 50 49 46 44 41 38 36 33 30 28 24 21 19 16 14 12 11 10 9 9 8 7 7 6 6 5 5 5 5 5 4 4 4 4 4 4 5 4 5 5 4 4 5 4
53 54 56 58 59 61 63 65 67 70 69 65 61 58 55 56 60 60 58 59 60 57 55 54 54 53 52 50 48 47 46 45 44 45 46 46 47 49 49 48 46 46 46 45 45 47 51 55 57 57 56 54 54 53 51 48 46 43 41 38 36 33 29 25 21 18 15 13 11 10 9 9 9 9 8 8 7 7 6 6 6 6 5 5 5 4 4 4 4 4 4 4 4 4 4 4 4
53 54 56 58 60 61 61 62 62 63 66 65 62 57 53 53 58 57 55 54 53 51 49 48 47 46 45 44 43 42 41 41 41 42 43 44 45 46 47 46 45 44 44 44 45 47 52 57 59 59 58 57 56 54 52 51 49 47 44 41 38 34 29 25 21 17 14 11 10 10 9 10 10 9 9 8 8 8 7 7 7 7 7 6 5 5 4 4 4 3 4 3 3 3 3 3 3
49 50 52 54 56 56 57 58 58 60 62 63 62 58 52 51 52 51 50 50 49 48 47 47 46 46 46 46 45 44 44 43 42 41 41 41 41 42 44 45 44 44 43 43 44 45 49 54 58 60 60 57 56 54 53 53 51 49 45 41 38 33 29 24 20 16 13 10 10 10 10 10 10 10 9 9 9 8 8 8 8 7 7 6 6 5 5 4 4 4 4 4 3 3 3 3 3
50 51 53 55 57 57 57 56 56 55 55 55 56 53 49 50 51 50 50 50 48 48 47 46 46 45 46 47 47 46 45 45 45 43 42 40 38 38 39 40 42 42 42 43 43 44 45 49 52 56 57 56 54 54 54 54 53 50 46 42 38 34 30 25 20 16 12 10 9 10 10 10 11 10 9 9 9 9 9 8 8 8 7 6 6 5 5 4 4 4 4 3 3 3 3 3 3
51 51 52 53 53 53 51 50 49 48 48 50 53 51 47 47 50 48 47 47 45 45 44 45 44 44 48 50 50 49 48 47 48 46 44 41 38 37 36 36 37 37 38 39 40 41 42 43 44 47 49 52 53 56 58 58 56 52 47 45 42 38 33 27 21 16 12 11 10 10 11 11 11 10 9 9 9 9 9 8 8 8 7 6 6 5 5 5 4 4 4 4 3 3 3 3 3
47 47 47 48 48 49 48 48 47 45 45 46 48 51 46 40 42 43 42 44 46 46 46 47 48 49 52 55 56 56 55 53 53 52 50 46 42 39 38 36 35 35 35 35 35 36 37 37 37 38 40 43 48 53 57 57 55 52 49 48 45 40 34 28 22 17 13 11 10 10 11 11 10 10 9 9 9 9 9 8 8 7 6 6 5 5 4 4 4 4 4 4 4 3 3 3 3
44 44 45 45 46 47 46 46 47 45 43 40 41 52 50 37 35 39 38 42 47 47 48 49 52 54 58 64 66 65 65 62 61 61 58 54 49 44 41 39 37 37 36 34 33 33 33 33 32 32 33 34 39 44 50 53 53 52 50 49 46 40 33 28 22 17 13 11 10 10 11 11 10 10 9 9 9 9 9 8 7 6 6 5 5 4 4 4 4 4 4 4 4 4 4 3 3
44 44 43 42 41 41 40 40 45 46 45 39 37 54 59 41 36 43 40 41 47 49 50 53 56 60 65 72 75 74 74 73 70 70 65 59 54 49 44 41 39 40 38 37 36 34 33 32 30 29 28 28 31 36 43 50 52 52 51 49 45 38 33 29 24 18 14 11 10 10 10 10 10 10 9 9 9 9 8 7 6 6 5 5 4 4 4 4 4 4 4 4 4 4 4 4 4
Wind_Speed
22 25 29 33 36 39 42 45 45 44 42 41 41 41 40 40 40 41 41 42 42 41 39 37 33 33 36 40 43 43 43 45 48 50 51 52 54 55 56 56 55 54 54 55 55 56 56 56 56 56 56 57 57 58 58 58 57 57 58 58 58 58 58 58 58 57 57 56 55 55 56 56 56 56 57 58 60 60 61 62 63 63 64 64 65 65 65 65 65 64 63 63 64 63 62 62 61
23 24 26 30 34 39 43 45 46 46 44 42 40 40 40 39 39 39 40 41 41 40 39 36 34 34 36 39 42 44 45 47 50 52 53 54 55 57 57 56 56 56 56 56 57 58 59 59 59 59 59 59 60 61 61 61 61 61 61 61 61 61 61 61 60 60 59 58 58 58 59 59 59 59 60 62 63 63 64 65 66 67 67 68 68 68 68 68 68 67 66 66 66 65 65 64 63
23 25 27 30 32 37 43 46 47 48 47 45 42 41 41 40 38 38 39 40 41 40 37 36 36 36 36 38 41 44 47 50 52 53 55 56 57 58 58 58 57 57 58 59 60 60 61 61 61 62 62 62 63 64 64 64 64 64 64 63 64 64 63 63 62 61 60 60 60 61 62 62 63 63 63 65 65 66 67 68 68 69 70 70 70 71 70 71 71 70 70 69 68 68 67 67 66
26 28 30 33 34 37 42 46 48 48 47 46 45 44 43 42 40 39 39 41 42 40 37 37 37 38 38 39 41 44 48 51 53 54 56 57 58 59 59 59 59 60 61 62 62 62 62 63 63 63 64 64 65 65 66 66 66 66 65 65 65 65 65 64 62 62 62 63 64 64 65 65 66 66 66 67 68 68 69 70 71 71 72 73 73 73 73 73 73 73 73 71 70 70 70 69 68
28 30 32 34 36 38 41 45 48 48 48 47 47 46 45 43 41 39 40 42 43 42 40 40 40 41 42 42 43 45 48 51 53 55 57 58 58 59 60 60 60 61 62 63 64 64 64 64 64 64 65 66 66 66 66 66 66 66 65 65 65 65 65 65 65 65 66 66 67 67 68 68 69 69 69 70 70 71 71 72 73 74 74 75 75 75 75 75 76 76 76 74 72 72 72 71 70
29 31 32 33 36 39 41 45 48 49 50 49 48 46 45 44 42 41 42 43 45 45 45 44 44 44 45 45 46 47 49 51 53 55 57 58 58 59 60 61 61 62 63 63 64 64 65 65 65 65 66 67 66 66 66 65 65 65 65 65 66 67 68 69 69 69 69 69 70 70 70 70 71 71 72 72 73 73 74 74 75 75 76 76 77 77 77 77 77 77 77 76 74 74 74 73 73
28 30 32 34 36 38 40 42 45 46 48 48 48 47 46 45 44 43 44 45 47 48 48 47 47 47 47 47 48 50 51 52 54 56 57 58 59 60 61 61 61 61 62 63 63 64 65 65 65 65 66 67 67 66 67 67 67 68 68 69 70 70 71 72 72 72 72 72 72 72 72 72 73 73 74 74 75 75 75 76 76 77 77 77 78 78 78 78 78 79 78 78 77 76 77 77 77
28 29 31 33 34 33 34 36 38 41 43 44 46 47 46 46 45 44 44 46 48 49 49 49 49 48 48 49 50 52 53 54 55 56 57 58 60 61 62 62 61 61 62 63 64 65 66 66 66 66 68 69 69 69 69 70 70 71 71 72 72 73 73 73 74 74 74 73 73 73 73 74 74 74 75 76 77 77 77 77 77 78 78 79 79 79 80 80 80 80 80 80 80 79 80 81 81
28 29 31 31 31 30 31 33 36 39 40 41 42 43 44 45 45 45 46 48 49 49 50 50 50 50 51 52 53 54 55 56 57 57 58 58 60 61 62 63 63 63 64 64 65 66 67 68 68 69 70 71 71 71 72 72 73 73 73 73 73 74 74 75 75 75 75 75 75 75 75 76 76 77 77 78 79 79 79 79 79 80 80 81 81 82 82 82 83 83 83 83 83 83 84 85 85
30 30 31 31 31 30 31 34 36 38 39 40 40 41 43 44 45 47 49 50 50 50 51 52 53 54 55 55 56 57 58 59 59 60 60 60 61 62 64 65 65 65 66 66 67 68 68 69 70 71 72 73 73 73 73 74 74 75 75 75 75 76 76 77 77 77 78 78 78 78 78 78 79 80 80 81 81 81 82 82 82 82 83 84 84 85 85 86 86 86 87 87 87 87 88 88 89
30 31 32 32 31 31 32 34 35 37 38 39 40 42 43 44 46 48 50 50 50 51 52 54 55 56 57 58 59 60 61 61 62 62 63 64 64 65 66 67 68 68 68 69 70 70 71 72 73 73 74 74 75 75 75 76 76 76 77 77 78 79 79 80 80 80 81 81 81 81 81 82 82 83 83 83 84 84 84 85 85 86 87 87 88 88 89 89 90 90 90 91 91 91 92 92 93
32 32 32 32 32 32 33 34 35 36 38 40 41 43 44 46 46 48 49 51 52 53 54 55 56 57 57 59 60 61 62 63 63 64 65 66 68 69 69 70 71 71 72 72 73 74 75 75 76 76 77 77 78 78 78 79 79 79 80 81 82 82 82 83 83 84 84 85 85 85 85 85 85 86 86 86 87 87 88 89 89 90 90 91 91 92 93 93 93 94 94 94 95 95 96 96 96
35 35 34 33 33 33 34 36 37 37 38 40 42 44 45 46 48 49 51 52 54 55 56 57 57 58 58 60 61 63 64 65 65 66 67 68 69 71 72 73 74 75 75 76 76 77 77 78 78 79 80 81 82 82 82 83 83 84 85 86 86 87 87 87 87 88 88 88 88 89 89 89 89 89 89 90 90 91 92 93 93 94 94 94 95 96 96 97 97 98 98 99 99 100 100 100 100
38 38 38 37 36 36 36 36 37 38 39 41 43 44 46 47 48 50 52 53 55 56 57 58 59 59 60 61 63 64 65 66 67 68 69 70 71 72 74 75 76 77 78 78 78 79 79 80 80 81 82 83 84 85 86 86 87 88 89 89 90 90 91 91 91 92 92 92 92 92 92 92 92 92 93 93 94 95 96 96 97 97 98 98 99 99 100 100 101 101 102 102 103 103 103 103 102
39 40 40 40 40 40 40 39 38 39 40 42 43 45 46 47 49 51 53 55 56 57 57 58 59 60 62 64 65 66 67 68 68 69 70 72 73 74 76 77 78 79 79 80 80 81 82 82 83 84 85 86 87 87 87 88 89 90 91 92 92 93 93 94 94 94 95 95 95 95 95 95 95 96 96 97 97 98 99 99 100 100 101 101 102 102 103 103 104 104 104 105 105 105 105 105 104
40 40 40 40 41 43 44 44 44 43 43 44 45 46 47 48 50 51 54 56 57 59 60 60 61 62 64 66 68 69 69 70 71 72 73 74 76 76 78 79 79 80 81 82 83 83 84 85 85 87 88 89 90 90 91 91 92 93 94 95 95 96 96 97 97 97 97 98 98 98 98 98 99 99 99 100 100 100 101 102 102 103 104 104 105 105 105 106 106 106 107 107 107 107 107 107 106
42 41 41 41 43 44 45 46 47 47 47 48 49 50 51 52 53 54 55 57 59 60 62 64 65 66 67 68 70 71 72 73 74 75 76 77 79 79 80 80 81 82 83 84 85 86 87 87 88 89 91 92 93 94 94 95 95 96 97 98 98 99 99 99 100 100 100 100 101 101 101 102 102 102 103 103 103 103 104 104 105 106 107 107 107 108 108 108 108 108 109 109 109 109 109 109 109
45 44 43 44 46 47 48 48 48 49 50 51 52 53 54 56 57 59 60 61 63 64 66 67 69 70 71 72 72 73 74 75 76 77 78 79 81 81 82 83 84 85 86 87 87 88 89 90 91 92 93 95 95 96 97 97 97 98 99 100 101 102 102 102 102 103 103 103 104 104 105 105 106 106 106 107 107 107 108 108 109 109 110 110 111 111 111 111 111 111 111 111 112 112 112 112 112
47 46 46 48 50 51 52 52 52 52 53 54 56 57 58 59 61 62 63 64 66 67 68 69 71 72 73 74 75 76 76 77 78 79 80 81 82 83 84 85 86 87 88 89 90 91 92 92 93 94 96 97 98 99 99 100 100 101 102 103 104 104 105 105 105 106 106 106 107 107 108 109 109 110 110 110 111 111 111 112 112 113 113 114 114 114 114 114 114 114 114 114 114 114 114 114 114
48 48 49 51 52 54 55 55 56 56 57 58 59 61 62 63 64 65 66 68 69 70 71 72 73 73 74 75 76 77 78 79 80 81 82 84 85 86 87 88 89 90 91 92 93 94 95 95 96 97 98 99 100 101 102 102 103 104 105 106 107 107 108 108 109 109 109 110 110 111 111 112 112 113 113 114 114 114 115 115 116 116 116 116 117 117 117 117 117 117 117 117 117 117 117 117 118
51 51 52 53 55 56 57 58 59 60 61 62 64 65 66 66 67 68 70 71 72 74 75 75 76 76 77 78 78 79 80 82 83 84 85 86 87 88 89 90 91 93 94 95 96 96 97 98 98 99 100 101 102 103 104 105 106 106 107 108 109 110 111 111 112 112 112 113 113 114 114 115 115 116 116 117 117 117 118 118 118 119 119 119 119 119 119 119 119 119 119 119 119 119 120 120 121
55 56 56 58 59 59 59 60 61 63 64 65 66 67 68 69 70 72 73 75 76 77 78 78 79 79 80 81 82 83 84 85 86 87 88 89 90 91 92 93 94 95 96 97 98 99 99 100 101 102 102 103 105 106 107 107 108 109 110 111 111 112 113 113 114 114 115 115 116 116 117 117 118 118 118 119 119 119 120 120 120 121 121 121 121 121 121 121 121 121 121 121 121 121 121 122 122
59 60 60 61 62 62 63 64 65 66 66 67 68 69 70 71 73 74 75 76 78 79 80 81 81 82 83 84 85 86 87 89 89 90 91 92 93 94 95 96 97 98 99 100 101 102 103 104 104 105 106 107 107 109 110 111 112 112 113 114 115 115 116 116 117 117 118 118 119 119 119 120 120 120 121 121 121 122 122 122 123 123 123 123 123 123 123 123 123 123 123 123 123 123 123 123 124
63 64 64 64 65 65 66 67 68 69 70 70 71 72 73 75 76 77 78 78 79 80 81 82 83 84 85 86 87 89 90 91 92 93 94 95 96 97 98 99 100 101 102 103 104 105 106 107 108 109 109 110 111 112 113 114 115 116 117 118 119 119 120 120 121 121 122 122 123 123 123 124 124 124 124 125 125 125 125 126 126 126 126 127 127 126 126 127 127 127 127 127 127 127 127 127 127
66 67 67 67 68 69 69 70 71 72 73 74 75 75 77 78 79 80 81 82 82 83 83 84 85 86 87 88 89 90 91 92 93 94 96 97 98 99 100 101 102 103 104 105 106 107 108 109 110 110 111 112 113 114 115 116 117 119 120 121 122 122 123 124 125 125 126 127 127 128 128 128 128 129 129 129 129 129 129 130 130 130 130 130 131 131 130 130 130 130 130 130 131 131 131 131 131
68 68 69 70 71 72 73 74 75 76 77 78 79 79 81 82 82 83 84 84 85 85 86 88 89 90 90 91 92 93 94 95 96 97 98 99 100 101 103 104 105 106 107 109 109 110 111 112 113 113 114 115 116 116 117 118 119 120 121 122 123 124 125 126 127 128 129 130 131 131 132 132 132 133 133 133 133 134 134 134 134 134 134 134 134 134 134 134 134 134 134 134 134 134 134 134 134
70 71 71 73 74 75 76 77 78 79 81 82 82 83 84 85 85 86 86 86 87 88 89 90 91 92 93 94 95 96 97 98 99 100 101 102 103 104 106 107 108 110 111 112 113 114 115 116 117 117 118 119 119 120 120 121 122 122 123 124 125 126 127 128 129 130 131 132 133 134 135 135 136 136 137 137 137 138 138 138 138 139 138 139 139 139 139 139 138 138 138 138 138 138 138 138 138
73 73 73 74 75 77 78 79 80 82 83 84 85 85 86 87 88 88 88 89 89 90 91 92 93 94 96 97 98 99 100 101 102 103 104 105 106 108 109 110 111 112 113 115 116 117 118 119 120 121 122 123 124 124 125 125 126 127 127 128 128 129 130 131 132 133 134 134 136 136 137 138 139 139 140 140 141 141 142 142 142 142 143 143 143 143 143 143 143 143 143 142 142 143 142 143 142
76 76 76 76 77 78 79 80 82 83 84 85 86 87 88 89 89 90 90 90 91 92 93 94 95 96 98 99 100 102 103 104 105 107 108 109 110 111 112 113 114 115 116 117 118 119 120 122 123 124 125 126 127 128 129 130 131 132 133 133 134 135 135 136 137 137 138 139 139 140 141 142 142 143 143 144 144 145 145 145 146 146 146 147 147 147 147 147 147 147 147 146 146 147 147 147 147
81 81 81 81 81 81 82 82 83 84 85 86 87 88 89 90 90 91 91 92 93 93 95 96 97 98 99 101 102 103 105 106 107 109 110 111 112 113 114 115 116 117 118 119 120 122 123 124 125 126 128 129 130 131 132 133 135 136 137 138 139 140 140 141 142 143 143 144 144 145 146 146 147 147 148 148 148 149 149 150 150 150 150 151 151 151 151 151 151 151 151 151 150 150 150 150 150
86 86 86 86 86 86 87 88 88 88 88 89 90 91 92 92 92 92 93 94 95 96 97 98 99 100 101 102 104 105 106 107 109 110 111 112 113 115 116 117 118 119 120 121 123 124 125 127 128 129 130 131 133 134 135 136 137 138 139 141 142 143 144 145 146 147 148 149 149 150 150 151 152 152 152 153 153 154 154 154 154 155 155 155 156 156 156 156 156 155 155 155 154 154 154 154 154
89 89 89 89 89 90 91 91 92 93 93 94 94 94 95 95 95 96 97 97 98 100 100 101 102 103 104 105 106 107 108 109 110 112 113 114 115 116 117 118 120 121 122 123 125 126 127 129 130 131 133 134 135 136 138 139 140 141 142 143 144 145 146 147 149 150 151 152 152 153 154 155 156 156 157 157 158 158 159 159 159 159 159 160 160 160 161 160 160 160 160 159 159 159 158 158 158
89 89 90 90 90 90 91 92 93 94 95 96 96 97 97 98 99 99 99 100 101 102 102 103 104 104 105 106 107 108 109 110 111 112 113 114 115 116 117 118 120 121 122 124 125 126 128 129 131 132 134 135 137 138 139 141 142 143 145 146 147 148 149 150 151 152 153 154 155 155 156 157 158 159 160 160 161 162 162 162 163 163 163 164 164 164 164 164 164 164 164 164 163 163 163 162 162
86 87 88 89 89 90 91 92 93 94 95 96 96 96 97 97 98 98 99 99 100 100 100 101 102 102 103 104 105 106 106 107 108 109 110 111 112 113 114 116 117 118 119 121 122 123 125 126 128 129 131 132 134 135 137 139 141 142 143 145 146 148 149 150 151 153 154 155 156 157 158 159 160 161 162 163 163 164 165 165 166 166 167 167 167 168 168 168 168 168 168 168 168 167 167 166 166
80 82 84 85 86 87 88 89 90 91 92 93 93 93 93 93 94 94 94 94 95 95 96 97 98 99 99 100 101 102 103 103 104 105 105 106 107 108 109 110 111 112 114 115 116 118 119 120 122 123 124 126 127 129 131 132 134 135 137 139 141 142 144 146 147 149 151 152 154 155 157 158 159 161 162 163 164 165 166 167 168 169 169 170 170 171 171 171 171 171 171 171 171 171 171 170 170
72 74 76 78 80 81 82 84 85 86 86 87 87 87 87 88 88 89 89 90 91 91 92 93 93 94 94 94 95 95 95 96 96 97 97 98 99 101 102 103 105 106 107 109 110 112 113 115 116 117 119 120 121 123 125 126 128 129 131 132 134 136 137 139 140 142 144 146 147 149 151 153 154 156 158 160 161 163 164 165 166 168 169 170 171 172 173 173 173 173 174 174 174 174 174 174 173
65 67 69 71 73 74 76 77 78 79 80 81 82 83 83 84 84 85 85 85 85 85 85 85 85 85 85 85 86 86 87 88 89 90 92 93 95 96 98 100 101 103 105 106 108 109 111 112 113 115 116 117 119 121 122 124 125 126 128 129 131 132 134 135 136 137 139 140 142 144 145 147 148 150 151 153 155 156 157 159 160 162 164 165 167 168 169 171 172 172 173 173 174 174 175 175 176
64 65 67 68 70 71 73 74 75 76 77 77 78 78 78 78 77 77 77 76 76 76 77 77 78 78 79 80 81 83 84 86 87 88 90 91 93 95 96 98 100 101 103 105 106 108 109 111 112 114 115 116 118 119 121 122 123 125 126 128 129 131 132 133 134 136 137 138 140 141 142 144 145 146 147 149 150 151 152 153 155 156 157 159 160 162 163 164 165 166 167 168 168 169 170 172 173
64 65 66 67 68 69 69 70 70 70 70 70 70 70 70 70 70 70 70 71 71 72 73 74 75 76 77 79 80 81 83 84 86 87 89 90 92 94 96 98 99 101 103 105 106 108 109 111 112 114 115 116 117 119 120 121 122 123 125 126 128 129 131 132 133 134 136 137 138 140 141 142 143 144 146 147 148 149 150 151 152 153 154 155 157 158 159 160 161 161 161 161 162 162 163 165 166
59 59 60 61 62 63 63 63 63 64 64 64 64 64 65 65 66 66 67 68 69 70 71 73 74 75 76 77 79 80 82 83 85 87 88 90 92 95 97 98 100 102 104 105 106 107 109 110 111 112 113 114 115 116 118 119 120 122 123 125 126 127 128 130 131 132 134 135 136 138 139 140 141 143 144 145 146 147 149 150 151 152 153 154 155 156 157 158 159 159 159 159 158 159 159 160 161
53 54 55 55 57 57 58 59 59 59 60 61 61 62 63 64 64 65 66 67 68 69 70 71 73 74 75 77 79 80 82 84 86 88 90 92 94 96 98 99 101 102 103 104 104 105 106 106 107 108 108 109 110 111 112 114 115 117 119 121 122 124 125 126 128 129 130 131 133 134 135 136 138 139 141 142 143 145 146 147 149 150 152 153 154 155 156 157 158 158 158 158 157 157 157 158 159
49 50 51 52 53 54 55 56 56 57 58 59 59 60 62 62 63 63 65 66 67 69 70 71 73 74 76 78 80 82 84 86 88 90 92 93 95 96 97 98 99 99 100 100 100 100 101 101 101 102 102 103 104 105 106 107 109 110 112 114 116 118 120 121 123 125 126 127 129 130 131 132 133 135 136 137 139 140 141 142 144 145 147 148 150 151 152 153 154 155 156 156 156 156 157 157 158
47 48 49 50 51 52 53 54 55 56 56 57 58 59 61 62 62 64 65 66 68 69 70 72 74 76 78 80 82 84 86 88 89 91 93 94 94 95 95 95 95 96 96 96 96 96 96 96 96 96 97 98 99 100 101 102 103 105 106 108 110 112 113 115 117 119 120 122 124 125 127 128 129 131 132 133 134 135 136 137 138 140 141 142 143 144 145 146 148 149 150 151 151 152 153 154 156
47 48 49 50 51 52 53 53 54 55 56 57 58 59 62 63 63 64 66 67 69 70 72 74 76 78 80 82 84 85 87 89 90 91 92 92 92 92 93 93 93 93 93 93 92 92 92 91 91 91 92 92 93 94 96 97 99 100 102 103 105 107 109 110 112 113 115 117 119 120 122 123 125 126 127 129 130 131 132 132 133 134 135 136 137 138 139 140 141 143 144 145 145 146 147 148 149
48 49 49 50 51 52 53 54 54 55 56 57 58 59 62 65 65 65 67 69 71 73 74 76 78 80 82 83 85 86 87 88 88 89 89 90 90 91 91 91 91 90 90 90 90 90 90 89 89 88 88 88 89 89 91 92 93 95 96 98 99 101 103 104 106 108 110 111 113 115 117 119 120 122 123 125 126 127 128 128 129 129 130 130 131 132 133 134 135 137 138 139 140 141 141 142 143
49 50 50 51 52 53 54 55 56 56 57 58 60 60 62 66 68 68 69 71 73 75 76 78 80 81 83 84 84 85 85 85 86 87 88 88 89 89 89 90 89 89 89 89 89 89 89 89 89 88 88 88 88 88 88 89 90 91 92 94 95 97 98 100 101 103 104 106 107 109 110 112 114 116 118 119 121 122 123 123 124 124 124 125 126 126 127 128 129 130 131 132 133 134 135 136 137
50 51 51 52 53 54 55 56 57 57 58 59 61 61 63 66 69 70 71 73 75 76 78 79 80 80 81 81 81 82 82 83 84 86 86 87 87 87 88 88 88 88 88 88 89 89 89 89 89 88 88 88 88 88 89 89 90 91 92 94 95 96 98 99 100 101 103 104 105 106 107 108 108 109 111 112 114 115 116 117 117 118 118 119 120 121 122 123 124 125 126 126 127 128 129 130 130
50 51 52 52 53 54 55 56 58 59 59 60 62 63 64 66 70 72 72 73 75 76 76 76 76 77 78 78 79 80 81 83 83 84 84 84 85 85 86 86 87 87 87 87 87 87 87 87 87 87 87 87 87 87 88 89 90 91 92 93 94 96 97 98 99 101 102 103 105 106 107 107 108 108 108 108 109 109 110 110 111 111 112 113 114 115 117 118 119 120 121 122 122 123 124 124 125
51 51 52 53 53 54 56 57 59 60 61 61 62 64 65 66 69 71 71 70 71 71 72 72 73 74 75 77 78 79 80 81 82 82 82 82 82 83 83 84 84 84 84 84 84 84 84 85 85 85 85 85 85 85 86 87 88 89 90 91 92 93 95 96 97 99 100 102 103 105 106 107 108 108 108 108 108 108 107 107 107 107 108 108 109 110 111 113 113 114 115 116 117 118 119 119 120
51 52 53 54 55 55 57 58 60 62 64 64 64 64 64 63 64 66 66 65 66 67 68 68 70 71 72 74 76 76 77 78 79 80 80 80 80 80 81 81 81 81 81 81 81 81 81 82 82 82 83 83 83 83 83 84 85 86 87 88 89 90 92 94 95 96 98 99 100 102 103 105 106 107 107 108 107 107 106 106 106 106 106 106 106 106 107 107 108 109 109 111 112 113 114 115 115
52 53 53 54 55 56 57 58 59 61 63 63 62 60 58 56 57 60 61 61 63 64 65 65 66 67 68 70 71 72 73 74 75 76 77 77 76 77 77 78 78 77 77 77 77 78 78 79 79 80 80 81 81 81 81 81 82 83 84 85 86 88 89 91 92 94 95 95 96 98 99 100 102 103 104 105 105 105 105 105 105 105 105 105 105 104 103 103 103 103 104 105 106 108 109 110 111
51 52 52 53 54 54 54 54 54 53 55 57 58 57 55 52 53 56 57 57 59 60 60 60 61 61 62 63 64 65 66 68 69 69 70 71 71 72 73 74 74 74 74 74 74 75 75 76 77 77 78 79 79 79 79 79 80 81 82 82 84 85 87 88 89 90 91 92 92 93 94 96 97 99 101 102 102 103 103 104 104 105 106 106 105 104 103 102 101 100 100 101 101 102 103 104 105
47 48 48 48 48 48 47 47 47 46 47 51 54 55 53 50 50 51 52 52 53 54 55 55 55 55 56 57 58 59 60 61 62 63 64 65 66 67 68 69 70 70 71 71 72 73 73 74 75 75 77 77 77 77 77 77 78 79 80 81 82 83 85 86 87 88 88 89 89 89 90 92 93 95 97 98 99 99 100 101 102 103 105 105 105 104 103 102 101 100 99 99 99 98 98 99 100
40 41 40 41 41 42 42 42 42 42 43 45 48 50 49 46 46 47 47 48 49 49 50 51 51 52 53 55 56 57 57 58 59 60 61 62 62 63 64 65 66 67 68 69 69 70 71 72 73 74 75 76 76 76 76 76 77 78 79 79 80 82 83 84 85 86 86 86 86 87 88 89 90 92 93 94 95 96 97 98 99 101 102 103 103 102 102 101 100 99 98 97 97 96 95 96 96
35 36 36 37 38 39 39 39 39 39 39 38 41 47 46 41 42 45 46 47 49 50 50 51 52 53 54 57 58 59 59 60 60 60 60 61 61 62 62 63 63 64 65 66 67 68 69 71 72 73 74 75 75 75 75 76 77 77 78 78 79 81 82 83 84 85 85 85 85 85 86 87 88 89 90 90 91 92 93 95 96 98 99 100 100 99 99 98 97 97 96 96 95 94 94 94 94
33 34 34 35 36 36 37 38 38 38 37 35 37 45 48 41 40 44 46 48 52 53 53 54 55 56 58 60 62 63 64 64 64 64 63 63 63 63 63 63 63 63 64 65 66 67 68 69 71 72 73 73 74 74 75 76 77 77 77 78 79 81 82 83 83 84 84 84 85 85 85 85 86 86 87 87 87 88 90 92 93 94 95 96 96 95 95 94 94 93 93 93 93 92 92 93 93
34 34 34 34 34 34 34 36 38 39 39 36 36 45 52 46 41 44 45 48 52 54 55 57 59 61 63 65 66 67 68 69 68 68 67 66 66 65 65 65 65 65 65 66 66 67 68 69 70 71 72 73 73 73 74 76 77 77 77 78 79 80 81 82 83 84 84 84 84 84 84 83 84 85 85 85 85 86 87 89 90 91 91 91 91 90 90 90 89 89 89 89 89 89 90 91 91
33 34 35 35 35 34 33 33 37 41 44 41 39 47 55 54 50 51 51 51 55 57 58 60 63 65 67 69 70 71 72 73 72 71 70 69 68 68 68 68 67 67 67 67 68 68 69 70 71 71 72 72 73 73 74 76 76 77 77 77 79 80 81 82 83 83 84 84 84 84 83 82 82 83 84 84 84 84 85 86 86 86 87 86 86 85 85 85 85 85 85 85 86 86 87 88 89
Wind_Direction
195 200 202 202 203 202 201 201 203 206 210 211 213 214 216 219 223 227 230 233 235 236 234 233 232 232 233 233 234 234 233 233 233 233 233 233 234 235 238 239 238 237 236 236 236 237 238 239 240 242 242 243 243 244 244 244 244 245 246 247 247 246 245 245 244 244 245 246 247 247 248 249 249 250 250 250 250 250 250 251 252 252 253 254 255 256 256 257 257 258 258 257 257 256 255 255 254
195 199 203 205 205 204 202 203 205 208 210 212 214 215 216 219 223 228 232 235 237 238 237 236 235 233 233 235 235 236 235 235 234 235 235 235 235 236 237 238 240 240 239 239 239 240 240 241 242 243 244 244 245 245 246 246 247 248 248 249 249 248 247 247 246 246 247 248 249 249 249 250 250 250 250 250 250 250 250 250 250 251 252 253 254 255 256 256 257 257 257 257 257 256 255 254 253
205 202 202 204 206 206 205 206 208 211 213 215 218 219 221 223 227 231 234 236 238 240 239 238 237 236 235 235 236 237 238 237 236 236 237 237 237 238 238 238 240 241 242 242 242 242 243 243 243 244 244 245 246 247 248 248 249 249 250 249 248 248 248 247 247 248 249 250 250 251 251 252 251 251 250 250 251 251 250 250 250 251 252 252 253 254 255 256 256 257 257 257 256 256 254 253 253
215 210 207 204 205 207 208 210 212 215 217 219 222 225 227 229 232 236 238 239 240 242 243 241 240 240 239 238 237 237 238 238 238 238 238 238 239 240 240 240 240 241 243 243 244 244 244 245 245 245 246 246 247 247 248 249 249 250 249 248 248 247 247 247 248 249 250 251 252 252 253 252 252 252 251 251 251 251 251 251 251 252 252 252 253 254 254 255 256 256 257 256 256 255 254 253 252
216 215 213 209 207 208 209 212 215 218 220 223 225 227 231 233 235 239 241 241 241 243 244 243 242 241 241 241 240 238 237 238 239 239 239 240 240 241 241 241 241 242 243 244 245 245 245 246 246 247 247 248 248 248 249 249 249 249 248 247 247 247 247 248 249 250 251 252 252 253 253 253 253 253 253 252 252 252 251 252 252 252 252 253 253 254 254 255 255 256 256 256 255 255 254 253 252
216 217 217 215 214 213 211 212 215 218 222 225 227 229 233 236 237 239 240 239 239 242 243 243 243 241 241 241 242 242 241 240 240 240 240 241 241 242 242 242 242 242 243 244 245 246 246 247 247 248 249 249 248 248 249 248 248 247 247 246 246 247 249 250 251 251 252 252 252 252 253 253 253 253 253 253 253 253 252 252 253 253 253 253 254 254 254 255 255 255 256 256 255 254 254 253 253
223 220 220 221 221 219 217 216 217 220 224 228 230 232 234 237 237 237 238 237 238 239 242 243 244 244 243 243 244 245 245 244 242 241 241 241 242 242 242 243 243 243 244 245 246 247 247 248 248 248 249 249 249 249 249 248 248 248 247 248 248 250 251 251 251 251 251 251 252 252 252 252 252 252 253 253 253 253 253 253 253 254 254 254 254 255 255 255 255 255 255 255 254 254 254 254 254
231 228 225 224 225 224 225 226 225 226 227 229 231 233 236 238 239 239 240 240 240 240 242 244 246 247 247 247 246 246 247 246 245 244 243 242 242 243 243 243 243 243 245 246 247 248 248 249 249 249 250 251 251 251 251 251 250 250 250 250 250 251 251 251 251 251 251 251 251 252 252 252 253 253 253 253 253 253 254 254 254 254 255 255 255 255 255 255 255 255 255 255 254 254 254 254 255
233 233 233 230 229 228 229 232 232 231 230 230 232 234 236 238 240 241 241 241 241 241 242 244 246 247 247 248 248 248 248 247 247 246 245 244 244 244 245 245 244 245 246 247 248 249 250 250 251 251 251 252 252 252 253 253 253 253 252 252 252 252 251 251 251 252 252 252 252 253 253 253 254 254 254 254 254 254 254 255 255 255 255 255 255 255 255 255 255 255 255 255 254 254 254 255 255
235 235 236 234 233 232 233 234 234 234 233 232 233 234 236 237 239 240 240 240 241 241 241 241 242 243 244 246 247 248 249 248 248 247 247 246 245 245 246 246 246 246 247 248 249 250 250 251 251 251 252 252 253 253 253 254 254 254 254 253 253 252 252 252 252 253 253 254 254 254 254 254 255 255 255 255 255 255 255 255 255 255 255 255 255 255 255 255 255 255 255 254 254 254 255 255 256
239 239 237 235 234 234 237 238 238 238 237 236 235 235 237 238 238 240 241 242 243 242 241 241 241 241 242 244 246 247 248 249 248 248 247 246 245 245 246 246 247 247 247 247 248 248 249 249 250 251 252 253 253 253 254 254 254 254 254 254 254 253 253 253 254 254 254 255 255 255 255 255 256 256 256 256 256 256 256 255 255 255 255 255 255 255 255 255 255 254 254 255 255 255 255 256 257
239 241 241 239 238 238 240 242 242 242 243 243 242 240 240 240 241 242 243 244 245 245 245 245 244 244 244 244 245 246 247 248 249 249 248 247 247 247 247 247 247 248 248 247 247 247 248 249 250 251 252 253 253 253 253 254 254 254 255 255 255 255 255 255 255 256 256 256 256 257 256 256 256 256 256 256 256 256 256 255 255 255 255 255 255 255 255 255 255 255 255 255 255 255 256 256 257
238 239 241 241 241 242 243 246 246 246 247 247 248 247 246 245 245 245 245 245 246 247 247 248 248 248 248 247 247 247 248 248 249 249 249 249 249 248 249 249 249 249 249 249 249 249 250 251 251 252 253 253 254 254 254 255 255 255 256 256 256 257 257 257 257 257 258 258 258 258 258 257 257 257 257 256 256 256 255 255 255 255 255 255 255 255 256 256 256 256 256 256 256 256 257 257 257
244 242 241 240 240 240 243 246 248 249 249 249 250 251 251 250 249 249 249 249 249 250 250 251 252 252 252 252 252 251 251 251 251 252 251 251 251 251 250 250 250 251 251 251 251 252 252 252 253 253 254 254 255 255 255 255 256 256 257 257 258 258 258 258 258 258 258 258 258 258 258 257 257 256 256 255 255 255 254 254 254 254 254 254 255 255 255 256 256 256 256 257 257 257 257 258 258
253 251 249 247 244 243 242 243 246 247 249 250 250 251 252 253 252 252 252 252 252 252 253 254 254 255 255 254 254 254 254 254 254 255 255 255 254 254 253 253 253 253 253 253 253 253 253 253 254 254 254 255 255 255 256 256 256 257 257 257 258 258 258 258 258 258 259 259 259 258 258 258 257 257 256 255 255 255 255 254 254 254 254 255 255 255 255 256 256 257 257 257 257 257 257 257 257
259 259 258 256 254 250 247 246 246 246 246 248 249 250 251 251 252 252 252 253 253 252 252 253 254 254 254 254 254 254 254 254 254 255 255 256 256 256 256 256 256 256 255 255 255 255 255 255 255 255 255 256 256 256 256 256 257 257 257 257 258 258 258 258 258 258 259 259 259 259 259 259 258 258 258 257 257 256 256 256 256 256 256 256 256 256 256 256 257 257 257 257 257 257 257 257 257
259 260 260 260 259 256 254 252 250 250 249 249 249 250 250 250 250 251 252 252 253 253 252 252 252 252 252 253 253 253 253 253 253 254 254 255 255 256 256 256 257 257 257 257 257 257 257 257 257 257 257 258 258 258 258 258 258 258 258 258 258 258 258 258 258 258 259 259 259 259 259 259 259 259 258 258 258 258 257 257 257 257 257 257 258 258 258 257 257 257 258 257 257 257 257 257 257
256 257 257 257 257 256 256 255 254 254 253 253 253 252 252 252 252 252 252 253 253 253 253 253 253 253 253 253 253 253 254 254 254 255 255 255 256 256 256 257 257 257 257 258 258 258 258 258 258 258 259 259 259 259 259 259 259 259 259 259 260 260 259 259 259 259 259 259 259 259 259 259 259 259 259 259 258 258 258 258 258 258 258 258 258 259 258 258 258 258 258 258 258 258 258 257 257
257 257 257 256 256 256 256 256 256 255 255 254 254 254 254 254 254 254 255 255 256 256 256 255 255 255 255 255 256 256 256 256 256 256 257 257 257 258 258 258 258 258 258 258 258 258 258 258 259 259 259 260 260 260 260 260 260 260 260 261 261 261 261 261 261 261 261 260 260 260 260 260 260 259 259 259 259 259 259 259 259 258 259 259 259 259 259 259 259 258 258 258 258 258 258 258 258
255 256 256 256 256 256 257 257 257 257 257 256 255 255 255 255 255 256 257 257 257 258 258 257 257 258 258 258 258 259 259 259 259 259 259 259 259 259 260 260 260 260 260 260 260 260 260 260 260 260 261 261 262 262 262 262 262 262 262 262 262 262 262 262 262 262 262 261 261 261 261 261 261 261 260 260 260 260 260 260 259 259 259 259 259 259 259 259 259 259 259 258 258 258 258 258 258
253 253 254 255 255 256 256 257 256 256 256 255 255 256 256 256 256 256 256 257 257 258 258 258 259 259 259 260 260 261 261 261 261 261 261 261 261 261 261 261 261 261 262 262 262 262 262 262 262 262 262 262 263 263 263 263 263 263 263 263 263 263 263 263 263 263 262 262 262 262 261 261 261 261 261 261 261 260 260 260 260 260 260 260 259 259 259 259 259 259 259 259 259 259 259 259 259
254 254 254 255 256 257 257 257 257 256 256 255 255 255 256 257 257 257 256 257 257 257 258 258 258 259 259 259 259 259 260 260 260 261 261 261 261 262 262 262 262 262 262 263 263 263 263 263 263 263 263 263 263 263 263 263 263 263 263 263 263 263 263 263 263 262 262 262 262 262 262 262 261 261 261 261 261 261 261 261 260 260 260 260 260 260 260 260 260 260 260 260 260 260 260 260 260
255 256 256 257 258 259 260 260 260 260 260 259 259 258 258 258 258 258 258 258 258 258 259 259 259 259 259 259 259 259 259 259 259 259 260 260 260 261 261 262 262 262 262 262 263 263 263 263 263 263 263 262 262 262 262 262 262 262 262 262 262 262 262 262 262 262 262 262 262 262 262 262 262 262 261 261 261 261 261 261 261 261 261 260 260 260 260 260 260 260 260 260 260 260 261 261 261
258 258 258 259 260 261 261 262 262 262 263 263 262 262 262 261 261 260 260 260 261 261 261 262 262 262 261 261 261 261 261 260 260 260 260 261 261 261 262 262 262 262 263 263 263 263 263 263 263 263 263 263 263 263 263 263 263 263 263 262 262 262 262 262 262 262 262 262 262 262 262 262 262 262 262 262 262 262 262 262 262 262 262 261 261 261 261 261 261 261 261 261 261 261 261 261 261
260 260 261 261 261 262 262 262 263 263 264 264 264 264 264 263 263 263 263 262 263 263 263 264 264 264 263 263 263 263 263 263 263 263 263 263 263 263 263 263 263 263 264 264 264 264 264 264 264 264 264 264 264 264 264 264 264 264 264 264 264 264 264 264 264 263 263 263 263 263 262 262 262 262 263 263 263 263 263 263 263 263 263 262 262 262 262 262 262 262 262 262 262 262 262 261 262
262 262 262 262 262 262 262 263 263 264 265 265 265 265 266 265 265 265 264 264 264 264 264 264 264 264 264 265 265 265 265 265 265 265 265 265 265 265 265 265 265 265 265 265 265 265 265 265 265 265 265 265 265 265 265 265 265 265 266 266 266 266 265 265 265 265 265 265 264 264 264 263 263 263 263 263 263 262 262 262 262 262 262 263 263 262 262 262 262 262 262 262 262 262 262 262 262
264 264 263 263 263 263 263 263 264 264 265 266 266 266 267 267 267 266 266 266 265 265 265 265 265 265 265 265 265 266 266 266 266 266 266 267 267 267 267 267 266 266 266 266 266 266 265 265 265 265 265 265 265 265 265 265 265 265 265 265 266 266 266 266 266 265 265 265 265 265 265 264 264 264 264 263 263 263 263 263 263 263 263 262 262 263 263 262 262 262 262 262 262 262 262 262 262
266 265 264 264 264 264 264 264 265 265 265 266 267 267 268 268 268 268 268 267 267 267 266 266 266 266 266 266 266 266 266 266 267 267 267 267 267 267 267 267 267 267 267 267 266 266 266 266 265 265 265 265 265 265 265 265 265 265 265 265 265 265 265 265 265 265 265 265 265 265 265 265 265 265 264 264 264 264 264 264 263 263 263 263 263 263 263 263 263 263 263 263 262 262 262 262 262
269 268 268 267 267 266 266 266 266 266 267 267 268 268 269 269 269 269 269 269 269 269 269 268 268 268 268 268 268 268 268 267 267 267 267 268 268 268 268 268 268 267 267 267 267 266 266 266 266 265 265 265 265 265 264 264 264 264 264 264 264 264 264 264 264 264 264 264 264 264 265 265 265 264 264 264 264 264 264 264 264 264 263 263 263 263 263 263 263 263 263 263 263 263 263 263 263
270 271 271 270 270 270 269 269 269 269 269 269 270 270 270 270 270 270 270 270 270 270 270 270 270 269 269 269 269 269 269 269 269 269 268 268 268 268 268 268 268 268 268 268 268 267 267 267 266 266 266 265 265 265 265 264 264 264 264 264 264 264 264 264 264 264 264 264 264 264 264 264 264 264 264 264 264 264 264 264 264 263 263 263 263 263 263 263 263 263 263 263 263 263 263 263 263
269 270 270 271 271 271 272 272 272 272 273 273 273 273 273 272 272 272 272 272 272 272 272 272 272 271 271 271 271 271 271 271 271 270 270 270 270 270 269 269 269 269 269 269 268 268 268 268 268 267 267 267 266 266 266 265 265 265 264 264 264 264 264 263 263 263 263 263 263 263 263 264 264 264 264 264 264 264 264 263 263 263 263 263 263 263 262 262 262 262 262 262 262 262 262 262 262
267 268 268 269 270 270 271 272 272 273 273 274 274 274 274 274 275 274 274 274 274 274 274 274 273 273 273 273 273 273 273 272 272 272 272 271 271 271 271 270 270 270 269 269 269 269 268 268 268 268 268 267 267 267 267 266 266 266 265 265 265 265 264 264 264 264 263 263 263 263 263 263 263 263 263 263 263 263 263 263 263 263 263 263 263 263 263 262 262 262 262 262 262 262 262 262 262
265 266 266 267 268 269 270 271 271 272 272 273 273 274 275 275 275 275 275 275 275 275 275 275 275 274 274 274 274 274 273 273 273 273 272 272 272 272 271 271 271 271 270 270 270 269 269 269 268 268 268 268 268 267 267 267 267 267 266 266 266 266 265 265 265 265 264 264 264 263 263 263 263 263 263 263 263 263 263 263 263 263 263 263 263 263 262 262 262 262 262 262 261 261 261 261 261
265 265 266 267 268 268 269 270 271 271 272 273 274 274 275 275 276 276 276 276 276 276 276 276 276 276 275 275 275 275 275 275 274 274 274 274 274 274 274 273 273 273 272 272 272 271 271 271 270 270 270 269 269 269 268 268 268 268 267 267 267 267 266 266 266 266 265 265 265 264 264 264 263 263 263 263 263 263 263 263 263 263 263 262 262 262 262 262 262 262 262 262 261 261 261 261 261
267 267 268 268 269 269 270 271 271 272 273 274 274 275 275 275 276 276 276 276 277 277 277 277 277 277 277 277 277 277 277 277 277 277 277 276 276 276 276 276 275 275 275 274 274 274 273 273 273 272 272 271 271 271 270 270 269 269 268 268 268 267 267 267 266 266 266 266 266 265 265 265 264 264 264 264 263 263 263 263 263 263 263 262 262 262 262 262 262 262 261 261 261 261 261 261 261
270 270 270 270 271 271 271 272 272 273 273 274 274 275 275 275 276 276 277 277 277 278 278 278 278 278 278 278 278 278 278 278 278 278 278 277 277 277 277 277 276 276 276 276 275 275 275 275 274 274 274 273 273 272 272 271 271 270 270 269 269 268 268 268 267 267 266 266 266 266 265 265 265 265 264 264 264 264 264 264 263 263 263 263 263 262 262 262 262 262 261 261 261 261 261 261 261
273 273 273 273 273 273 273 273 273 273 274 274 275 276 276 277 277 278 278 278 278 278 278 279 279 279 279 279 279 279 279 279 279 279 279 278 278 278 278 278 278 278 277 277 277 277 277 276 276 276 275 275 274 274 273 273 273 272 272 271 271 270 270 269 269 268 268 267 267 266 266 266 265 265 265 264 264 264 264 264 264 263 263 263 263 263 262 262 262 262 261 261 261 261 261 261 261
274 274 274 274 275 274 274 275 275 275 276 276 277 277 278 278 279 279 279 279 279 280 280 280 280 280 280 280 280 280 280 280 280 280 280 280 280 280 280 280 280 280 280 279 279 279 279 279 278 278 277 277 276 276 275 275 274 274 273 273 272 272 271 271 270 270 269 269 268 268 267 267 266 266 266 265 265 265 264 264 264 263 263 263 263 263 262 262 262 262 261 261 261 261 261 261 261
275 276 276 276 276 276 277 277 278 278 278 279 279 279 280 280 280 280 281 281 281 281 282 282 282 282 282 282 282 282 282 282 282 282 282 282 282 282 282 282 282 282 281 281 281 281 280 280 280 279 279 278 278 277 277 276 276 275 274 274 273 273 272 272 271 271 270 270 269 269 268 268 267 267 267 266 266 266 265 265 264 264 264 263 263 263 263 262 262 262 261 261 261 261 261 261 260
277 278 278 278 279 279 279 280 280 280 281 281 281 282 282 282 282 283 283 283 283 283 284 284 284 284 284 284 284 284 284 284 284 284 284 284 284 284 284 283 283 283 283 282 282 282 281 281 280 280 279 279 278 278 277 277 276 276 275 275 274 274 273 273 272 272 271 271 270 270 269 269 268 268 267 267 267 266 266 266 265 265 265 264 264 264 263 263 263 262 262 261 261 261 261 261 260
278 279 279 280 281 281 282 282 282 283 283 283 283 284 284 284 284 285 285 285 285 285 285 286 286 286 286 286 286 286 286 286 286 285 285 285 285 285 285 285 285 284 284 284 283 283 282 282 281 281 280 279 279 278 278 277 277 276 276 276 275 275 275 274 274 273 273 272 272 271 271 270 270 269 269 268 268 267 267 266 266 265 265 265 265 264 264 264 264 263 263 262 262 261 261 261 261
280 281 281 282 282 282 283 283 284 284 284 285 285 286 286 286 286 287 286 287 287 287 287 287 287 287 287 287 287 287 287 287 287 287 287 287 287 287 287 286 286 286 286 285 285 285 284 284 283 282 282 281 281 280 279 279 278 277 277 277 276 276 276 275 275 275 274 274 274 273 273 272 272 271 271 270 269 269 268 268 267 267 266 266 265 265 265 265 264 264 264 263 263 262 261 261 261
283 283 283 283 283 283 283 284 285 285 286 286 287 287 287 287 288 288 287 288 288 288 288 288 288 288 288 288 288 288 288 288 289 289 289 289 289 289 288 288 288 288 288 288 287 287 286 286 285 285 284 284 283 283 282 282 281 280 280 279 279 278 278 277 277 277 276 276 275 275 274 274 273 273 272 272 271 270 270 269 269 268 268 268 267 267 266 266 266 265 265 264 263 263 262 261 261
285 285 285 285 285 285 285 286 286 286 287 287 287 288 288 288 288 289 289 289 289 289 289 289 289 289 289 290 290 290 290 290 291 291 291 291 291 291 291 291 291 291 291 290 290 289 288 287 287 286 285 285 284 284 284 283 283 282 282 281 281 280 280 280 279 279 279 278 278 277 277 276 275 275 274 274 273 272 272 271 271 270 270 269 269 268 268 268 267 267 266 265 265 264 263 262 261
289 289 288 288 287 287 287 287 287 287 287 287 287 288 289 290 290 290 290 291 290 290 290 291 291 291 291 291 291 291 292 292 292 292 292 293 293 293 294 293 293 293 293 292 292 291 291 290 289 288 287 286 285 284 284 283 283 282 282 282 281 281 281 281 280 280 280 279 279 279 278 278 277 277 276 276 275 274 274 273 273 272 272 271 271 270 269 269 268 267 267 266 266 265 264 263 263
290 290 289 288 288 288 288 287 287 288 288 288 289 290 291 291 291 291 291 291 292 292 292 292 292 292 292 292 292 293 293 293 294 294 294 295 295 295 295 295 295 295 295 295 294 294 293 293 292 292 291 290 290 289 288 288 287 287 286 286 286 285 285 284 284 283 283 282 281 280 280 279 278 278 277 277 276 276 275 275 275 274 274 273 272 272 271 270 269 268 268 267 266 266 265 264 264
290 290 289 289 289 289 289 289 289 290 290 290 291 291 292 292 292 293 293 293 293 293 293 293 293 294 294 294 294 295 295 295 295 296 296 296 297 297 297 297 297 297 297 297 296 296 295 295 295 294 294 294 294 293 293 292 292 292 291 291 290 289 289 289 288 288 287 287 286 285 284 282 281 280 279 278 278 277 276 276 275 275 274 274 273 272 272 271 271 270 269 268 268 267 266 265 264
291 291 290 290 290 290 290 291 291 291 291 291 292 292 292 293 293 293 294 294 294 295 295 295 296 296 296 296 296 297 297 297 297 297 297 297 297 297 297 297 297 297 297 297 296 296 296 295 295 295 295 295 295 295 294 294 293 293 292 291 291 290 290 290 290 290 289 289 289 288 288 287 286 285 284 283 281 280 279 278 277 276 275 275 274 273 272 272 271 271 270 270 269 268 267 267 266
293 293 293 292 292 292 291 291 292 292 292 292 292 293 293 294 294 294 295 296 296 297 297 298 298 298 298 298 298 298 298 298 298 298 298 298 298 298 298 297 297 297 297 296 296 295 295 295 295 295 295 295 295 295 294 293 293 292 292 291 291 291 291 291 290 290 290 290 289 289 289 289 288 288 287 286 285 284 283 282 281 279 278 277 275 274 274 273 272 272 271 271 270 269 268 267 266
295 295 294 293 293 293 293 293 294 294 294 294 294 294 295 296 296 297 298 299 299 299 299 300 300 300 300 300 300 300 300 299 299 299 299 299 299 299 298 297 296 296 296 296 295 295 295 295 295 295 295 295 295 294 294 293 293 292 292 292 292 292 292 291 291 290 290 290 289 289 289 288 288 288 287 287 287 286 286 285 284 282 281 279 278 276 275 274 274 273 272 272 271 270 269 268 267
296 296 296 296 296 296 297 297 298 299 299 299 299 298 299 301 301 301 302 303 302 302 303 303 303 304 304 303 303 303 303 302 302 302 301 301 300 299 298 297 297 296 296 296 295 295 295 295 295 295 295 294 294 294 294 294 294 293 293 293 293 292 292 291 291 291 290 290 289 289 289 288 288 288 288 287 287 287 287 286 286 285 284 283 281 280 279 277 276 275 273 272 271 270 269 268 267
299 300 300 301 301 301 302 302 303 304 305 305 306 305 306 308 308 306 307 307 307 308 309 309 310 310 310 309 309 309 308 307 307 306 305 303 302 301 299 299 298 298 297 296 296 296 296 295 295 295 295 295 295 295 295 295 295 295 295 294 294 293 293 292 292 292 291 291 291 290 290 290 289 289 288 288 288 288 288 287 287 286 286 285 284 284 283 281 280 278 276 275 273 271 270 268 267
306 306 307 307 307 307 308 309 310 311 311 311 311 311 313 316 315 314 315 315 315 315 315 315 316 316 316 316 316 315 315 314 312 311 309 308 306 305 303 302 301 300 299 298 297 297 296 296 296 296 295 295 296 296 297 297 296 296 296 295 295 295 294 294 294 294 294 294 293 293 293 292 291 290 289 289 289 288 288 288 287 286 286 286 286 285 285 284 282 281 279 277 276 274 272 270 269
314 314 314 315 315 315 316 317 317 318 318 319 318 317 320 324 323 322 322 320 319 318 318 319 320 322 322 323 322 322 321 320 319 317 316 314 312 310 308 307 305 303 302 301 299 299 298 297 297 297 296 296 297 297 298 298 297 297 297 297 297 297 297 297 297 297 297 297 297 296 295 294 293 291 290 290 289 289 288 287 287 286 286 286 286 286 285 284 283 282 281 279 278 276 274 273 271
323 324 324 324 324 325 325 326 326 326 327 328 326 322 322 327 327 325 325 324 323 323 324 326 327 328 329 330 329 328 327 326 325 324 322 320 319 317 315 313 310 308 306 304 303 302 301 300 299 298 298 298 299 299 299 299 299 300 300 301 301 301 301 300 300 300 300 300 300 299 298 296 294 292 291 290 290 289 288 288 287 287 287 287 286 286 285 284 283 282 281 280 279 277 276 274 273
336 335 335 335 336 336 335 334 333 331 330 330 330 326 322 324 327 327 328 330 331 332 332 334 335 335 336 335 335 334 333 332 331 329 328 326 324 322 320 318 316 314 311 309 307 306 304 303 302 301 301 301 301 301 301 302 302 302 303 304 304 303 303 303 303 303 303 303 302 301 299 298 296 294 293 292 291 290 290 289 288 288 288 287 286 286 285 284 283 282 281 280 279 278 276 275 273
344 343 341 340 340 339 337 336 336 335 333 332 336 334 329 327 331 331 332 335 336 336 337 339 339 340 341 340 338 338 336 335 334 333 331 329 328 326 324 323 321 319 317 315 312 311 309 307 306 305 304 303 303 303 303 303 304 304 305 305 305 305 304 305 305 305 305 304 303 302 301 300 298 296 295 294 293 292 291 290 290 289 288 288 287 286 285 284 283 282 281 280 278 277 276 274 273
346 343 342 340 341 340 339 338 339 341 341 340 345 344 337 336 341 341 339 341 341 341 341 342 343 343 343 342 340 340 338 337 336 334 333 331 329 328 327 326 325 323 321 320 317 315 313 311 310 308 307 306 306 306 305 305 305 306 306 306 306 306 306 307 307 307 306 306 305 304 303 302 300 299 297 296 295 294 293 292 291 291 290 289 287 286 285 284 283 282 281 280 279 277 276 274 273